Year,Month,Day,Hour,Minute,Value (Times are PST for temperature in C)
2015,05,28,00,00,15.40
2015,05,28,00,01,15.40
2015,05,28,00,02,15.40
2015,05,28,00,03,15.40
2015,05,28,00,04,15.40
2015,05,28,00,05,15.40
2015,05,28,00,06,15.30
2015,05,28,00,07,15.30
2015,05,28,00,08,15.30
2015,05,28,00,09,15.30
2015,05,28,00,10,15.30
2015,05,28,00,11,15.30
2015,05,28,00,12,15.20
2015,05,28,00,13,15.20
2015,05,28,00,14,15.20
2015,05,28,00,15,15.20
2015,05,28,00,16,15.20
2015,05,28,00,17,15.20
2015,05,28,00,18,15.10
2015,05,28,00,19,15.10
2015,05,28,00,20,15.10
2015,05,28,00,21,15.10
2015,05,28,00,22,15.10
2015,05,28,00,23,15.10
2015,05,28,00,24,15.00
2015,05,28,00,25,14.90
2015,05,28,00,26,14.90
2015,05,28,00,29,14.90
2015,05,28,00,30,14.90
2015,05,28,00,31,14.90
2015,05,28,00,32,14.80
2015,05,28,00,33,14.80
2015,05,28,00,34,14.80
2015,05,28,00,35,14.80
2015,05,28,00,38,14.80
2015,05,28,00,39,14.70
2015,05,28,00,40,14.70
2015,05,28,00,41,14.70
2015,05,28,00,42,14.70
2015,05,28,00,43,14.70
2015,05,28,00,46,14.60
2015,05,28,00,47,14.60
2015,05,28,00,48,14.60
2015,05,28,00,50,14.60
2015,05,28,00,51,14.60
2015,05,28,00,52,14.60
2015,05,28,00,53,14.60
2015,05,28,00,55,14.60
2015,05,28,00,56,14.50
2015,05,28,00,57,14.50
2015,05,28,00,58,14.50
2015,05,28,00,59,14.40
2015,05,28,01,00,14.40
2015,05,28,01,02,14.40
2015,05,28,01,03,14.40
2015,05,28,01,04,14.40
2015,05,28,01,05,14.40
2015,05,28,01,06,14.40
2015,05,28,01,07,14.40
2015,05,28,01,08,14.40
2015,05,28,01,09,14.40
2015,05,28,01,10,14.40
2015,05,28,01,11,14.40
2015,05,28,01,12,14.40
2015,05,28,01,14,14.40
2015,05,28,01,15,14.40
2015,05,28,01,16,14.40
2015,05,28,01,17,14.40
2015,05,28,01,20,14.40
2015,05,28,01,21,14.40
2015,05,28,01,22,14.40
2015,05,28,01,23,14.30
2015,05,28,01,24,14.30
2015,05,28,01,25,14.30
2015,05,28,01,26,14.30
2015,05,28,01,27,14.30
2015,05,28,01,28,14.30
2015,05,28,01,29,14.30
2015,05,28,01,30,14.30
2015,05,28,01,31,14.30
2015,05,28,01,32,14.30
2015,05,28,01,33,14.30
2015,05,28,01,34,14.30
2015,05,28,01,35,14.30
2015,05,28,01,38,14.20
2015,05,28,01,39,14.20
2015,05,28,01,40,14.20
2015,05,28,01,41,14.20
2015,05,28,01,44,14.20
2015,05,28,01,45,14.20
2015,05,28,01,46,14.10
2015,05,28,01,47,14.10
2015,05,28,01,48,14.10
2015,05,28,01,49,14.10
2015,05,28,01,50,14.10
2015,05,28,01,51,14.10
2015,05,28,01,52,14.10
2015,05,28,01,53,14.00
2015,05,28,01,54,14.00
2015,05,28,01,55,14.00
2015,05,28,01,57,14.00
2015,05,28,01,58,13.90
2015,05,28,01,59,13.90
2015,05,28,02,00,13.90
2015,05,28,02,01,13.90
2015,05,28,02,02,13.90
2015,05,28,02,03,13.90
2015,05,28,02,04,13.90
2015,05,28,02,05,13.90
2015,05,28,02,07,13.90
2015,05,28,02,08,13.80
2015,05,28,02,09,13.80
2015,05,28,02,10,13.80
2015,05,28,02,11,13.80
2015,05,28,02,12,13.80
2015,05,28,02,13,13.80
2015,05,28,02,14,13.80
2015,05,28,02,15,13.80
2015,05,28,02,16,13.80
2015,05,28,02,17,13.70
2015,05,28,02,18,13.80
2015,05,28,02,19,13.70
2015,05,28,02,20,13.70
2015,05,28,02,22,13.70
2015,05,28,02,23,13.70
2015,05,28,02,24,13.70
2015,05,28,02,27,13.70
2015,05,28,02,28,13.60
2015,05,28,02,29,13.60
2015,05,28,02,30,13.60
2015,05,28,02,31,13.60
2015,05,28,02,32,13.60
2015,05,28,02,33,13.60
2015,05,28,02,35,13.50
2015,05,28,02,36,13.50
2015,05,28,02,37,13.40
2015,05,28,02,38,13.40
2015,05,28,02,39,13.40
2015,05,28,02,40,13.40
2015,05,28,02,41,13.40
2015,05,28,02,42,13.40
2015,05,28,02,43,13.40
2015,05,28,02,44,13.40
2015,05,28,02,45,13.30
2015,05,28,02,46,13.30
2015,05,28,02,47,13.30
2015,05,28,02,48,13.30
2015,05,28,02,49,13.30
2015,05,28,02,50,13.30
2015,05,28,02,51,13.30
2015,05,28,02,52,13.20
2015,05,28,02,53,13.30
2015,05,28,02,54,13.20
2015,05,28,02,55,13.20
2015,05,28,02,56,13.20
2015,05,28,02,57,13.20
2015,05,28,02,58,13.20
2015,05,28,02,59,13.20
2015,05,28,03,00,13.20
2015,05,28,03,01,13.20
2015,05,28,03,02,13.20
2015,05,28,03,03,13.20
2015,05,28,03,04,13.20
2015,05,28,03,05,13.10
2015,05,28,03,06,13.10
2015,05,28,03,07,13.10
2015,05,28,03,08,13.10
2015,05,28,03,09,13.10
2015,05,28,03,10,13.10
2015,05,28,03,11,13.10
2015,05,28,03,12,13.10
2015,05,28,03,13,13.10
2015,05,28,03,14,13.00
2015,05,28,03,15,13.00
2015,05,28,03,16,13.00
2015,05,28,03,17,13.00
2015,05,28,03,18,12.90
2015,05,28,03,19,12.90
2015,05,28,03,20,12.90
2015,05,28,03,21,12.90
2015,05,28,03,24,12.90
2015,05,28,03,25,12.90
2015,05,28,03,26,12.80
2015,05,28,03,28,12.80
2015,05,28,03,30,12.80
2015,05,28,03,31,12.80
2015,05,28,03,32,12.80
2015,05,28,03,33,12.70
2015,05,28,03,34,12.70
2015,05,28,03,35,12.70
2015,05,28,03,36,12.70
2015,05,28,03,38,12.70
2015,05,28,03,39,12.70
2015,05,28,03,41,12.70
2015,05,28,03,42,12.70
2015,05,28,03,43,12.60
2015,05,28,03,44,12.60
2015,05,28,03,45,12.60
2015,05,28,03,46,12.60
2015,05,28,03,47,12.60
2015,05,28,03,48,12.60
2015,05,28,03,49,12.60
2015,05,28,03,50,12.60
2015,05,28,03,51,12.60
2015,05,28,03,52,12.50
2015,05,28,03,53,12.50
2015,05,28,03,55,12.50
2015,05,28,03,56,12.40
2015,05,28,03,57,12.40
2015,05,28,03,58,12.40
2015,05,28,03,59,12.40
2015,05,28,04,00,12.40
2015,05,28,04,01,12.40
2015,05,28,04,02,12.40
2015,05,28,04,03,12.40
2015,05,28,04,05,12.40
2015,05,28,04,06,12.40
2015,05,28,04,07,12.30
2015,05,28,04,08,12.30
2015,05,28,04,09,12.30
2015,05,28,04,12,12.30
2015,05,28,04,13,12.30
2015,05,28,04,14,12.30
2015,05,28,04,15,12.30
2015,05,28,04,16,12.30
2015,05,28,04,17,12.20
2015,05,28,04,18,12.20
2015,05,28,04,19,12.20
2015,05,28,04,20,12.20
2015,05,28,04,21,12.20
2015,05,28,04,22,12.20
2015,05,28,04,23,12.20
2015,05,28,04,24,12.20
2015,05,28,04,25,12.20
2015,05,28,04,26,12.20
2015,05,28,04,27,12.20
2015,05,28,04,28,12.20
2015,05,28,04,29,12.20
2015,05,28,04,30,12.20
2015,05,28,04,31,12.20
2015,05,28,04,32,12.20
2015,05,28,04,33,12.20
2015,05,28,04,34,12.20
2015,05,28,04,35,12.10
2015,05,28,04,36,12.10
2015,05,28,04,37,12.10
2015,05,28,04,38,12.10
2015,05,28,04,39,12.10
2015,05,28,04,40,12.10
2015,05,28,04,43,12.00
2015,05,28,04,44,12.00
2015,05,28,04,45,12.00
2015,05,28,04,46,12.00
2015,05,28,04,47,12.00
2015,05,28,04,48,12.00
2015,05,28,04,49,12.00
2015,05,28,04,50,11.90
2015,05,28,04,51,11.90
2015,05,28,04,52,11.90
2015,05,28,04,53,11.90
2015,05,28,04,54,11.90
2015,05,28,04,55,11.90
2015,05,28,04,56,11.90
2015,05,28,05,00,11.90
2015,05,28,05,01,11.90
2015,05,28,05,02,11.90
2015,05,28,05,03,11.90
2015,05,28,05,04,11.90
2015,05,28,05,05,11.90
2015,05,28,05,06,11.90
2015,05,28,05,07,11.90
2015,05,28,05,08,11.90
2015,05,28,05,09,11.90
2015,05,28,05,10,11.90
2015,05,28,05,11,11.90
2015,05,28,05,14,11.90
2015,05,28,05,15,11.90
2015,05,28,05,16,11.90
2015,05,28,05,17,11.90
2015,05,28,05,18,11.80
2015,05,28,05,19,11.80
2015,05,28,05,20,11.80
2015,05,28,05,22,11.80
2015,05,28,05,23,11.80
2015,05,28,05,24,11.80
2015,05,28,05,25,11.80
2015,05,28,05,26,11.80
2015,05,28,05,27,11.80
2015,05,28,05,28,11.80
2015,05,28,05,29,11.80
2015,05,28,05,30,11.80
2015,05,28,05,31,11.80
2015,05,28,05,34,11.80
2015,05,28,05,35,11.80
2015,05,28,05,36,11.70
2015,05,28,05,37,11.70
2015,05,28,05,38,11.70
2015,05,28,05,39,11.70
2015,05,28,05,40,11.70
2015,05,28,05,41,11.70
2015,05,28,05,42,11.70
2015,05,28,05,43,11.70
2015,05,28,05,44,11.70
2015,05,28,05,45,11.70
2015,05,28,05,46,11.70
2015,05,28,05,49,11.70
2015,05,28,05,50,11.70
2015,05,28,05,51,11.70
2015,05,28,05,52,11.70
2015,05,28,05,53,11.70
2015,05,28,05,54,11.70
2015,05,28,05,55,11.70
2015,05,28,05,56,11.70
2015,05,28,05,58,11.70
2015,05,28,05,59,11.70
2015,05,28,06,00,11.70
2015,05,28,06,01,11.70
2015,05,28,06,02,11.70
2015,05,28,06,05,11.70
2015,05,28,06,06,11.70
2015,05,28,06,07,11.70
2015,05,28,06,08,11.70
2015,05,28,06,09,11.70
2015,05,28,06,10,11.70
2015,05,28,06,11,11.70
2015,05,28,06,12,11.70
2015,05,28,06,13,11.70
2015,05,28,06,14,11.70
2015,05,28,06,15,11.70
2015,05,28,06,16,11.70
2015,05,28,06,17,11.70
2015,05,28,06,18,11.80
2015,05,28,06,19,11.80
2015,05,28,06,20,11.80
2015,05,28,06,22,11.90
2015,05,28,06,23,12.00
2015,05,28,06,24,12.00
2015,05,28,06,25,12.10
2015,05,28,06,26,12.10
2015,05,28,06,27,12.20
2015,05,28,06,28,12.20
2015,05,28,06,30,12.30
2015,05,28,06,33,12.40
2015,05,28,06,34,12.40
2015,05,28,06,35,12.50
2015,05,28,06,36,12.60
2015,05,28,06,37,12.60
2015,05,28,06,38,12.60
2015,05,28,06,41,12.80
2015,05,28,06,42,12.80
2015,05,28,06,43,12.80
2015,05,28,06,44,12.90
2015,05,28,06,45,12.90
2015,05,28,06,46,13.00
2015,05,28,06,47,13.10
2015,05,28,06,48,13.20
2015,05,28,06,49,13.20
2015,05,28,06,50,13.30
2015,05,28,06,51,13.40
2015,05,28,06,52,13.40
2015,05,28,06,53,13.60
2015,05,28,06,54,13.60
2015,05,28,06,56,13.70
2015,05,28,06,57,13.70
2015,05,28,06,58,13.70
2015,05,28,06,59,13.80
2015,05,28,07,00,13.70
2015,05,28,07,01,13.70
2015,05,28,07,02,13.70
2015,05,28,07,03,13.70
2015,05,28,07,04,13.70
2015,05,28,07,05,13.70
2015,05,28,07,06,13.70
2015,05,28,07,07,13.80
2015,05,28,07,08,13.80
2015,05,28,07,09,13.80
2015,05,28,07,10,13.80
2015,05,28,07,11,13.80
2015,05,28,07,12,13.90
2015,05,28,07,13,13.90
2015,05,28,07,14,14.00
2015,05,28,07,15,14.00
2015,05,28,07,16,14.10
2015,05,28,07,17,14.10
2015,05,28,07,18,14.20
2015,05,28,07,19,14.30
2015,05,28,07,20,14.30
2015,05,28,07,21,14.40
2015,05,28,07,22,14.50
2015,05,28,07,23,14.60
2015,05,28,07,24,14.60
2015,05,28,07,25,14.70
2015,05,28,07,26,14.70
2015,05,28,07,27,14.70
2015,05,28,07,28,14.70
2015,05,28,07,29,14.70
2015,05,28,07,30,14.70
2015,05,28,07,31,14.60
2015,05,28,07,32,14.50
2015,05,28,07,33,14.40
2015,05,28,07,34,14.40
2015,05,28,07,35,14.40
2015,05,28,07,37,14.40
2015,05,28,07,38,14.30
2015,05,28,07,39,14.40
2015,05,28,07,40,14.40
2015,05,28,07,41,14.40
2015,05,28,07,42,14.40
2015,05,28,07,44,14.50
2015,05,28,07,45,14.50
2015,05,28,07,46,14.60
2015,05,28,07,47,14.60
2015,05,28,07,48,14.60
2015,05,28,07,49,14.60
2015,05,28,07,50,14.60
2015,05,28,07,51,14.70
2015,05,28,07,52,14.70
2015,05,28,07,53,14.70
2015,05,28,07,54,14.70
2015,05,28,07,57,14.80
2015,05,28,07,58,14.90
2015,05,28,07,59,14.90
2015,05,28,08,00,15.00
2015,05,28,08,01,15.10
2015,05,28,08,02,15.10
2015,05,28,08,03,15.10
2015,05,28,08,04,15.10
2015,05,28,08,05,15.10
2015,05,28,08,06,15.10
2015,05,28,08,07,15.10
2015,05,28,08,08,15.10
2015,05,28,08,09,15.10
2015,05,28,08,10,15.10
2015,05,28,08,11,15.70
2015,05,28,08,12,15.70
2015,05,28,08,14,15.70
2015,05,28,08,15,15.80
2015,05,28,08,16,15.80
2015,05,28,08,17,15.80
2015,05,28,08,18,15.80
2015,05,28,08,19,15.80
2015,05,28,08,20,15.80
2015,05,28,08,21,15.90
2015,05,28,08,22,15.90
2015,05,28,08,23,15.90
2015,05,28,08,24,16.00
2015,05,28,08,25,16.10
2015,05,28,08,26,16.10
2015,05,28,08,28,16.20
2015,05,28,08,29,16.30
2015,05,28,08,30,16.30
2015,05,28,08,31,16.40
2015,05,28,08,32,16.40
2015,05,28,08,33,16.50
2015,05,28,08,34,16.50
2015,05,28,08,35,16.50
2015,05,28,08,36,16.60
2015,05,28,08,37,16.50
2015,05,28,08,38,16.50
2015,05,28,08,39,16.50
2015,05,28,08,40,16.60
2015,05,28,08,41,16.60
2015,05,28,08,42,16.60
2015,05,28,08,45,16.50
2015,05,28,08,46,16.60
2015,05,28,08,47,16.60
2015,05,28,08,48,16.60
2015,05,28,08,49,16.70
2015,05,28,08,50,16.70
2015,05,28,08,51,16.80
2015,05,28,08,52,16.80
2015,05,28,08,53,16.80
2015,05,28,08,54,16.90
2015,05,28,08,55,16.90
2015,05,28,08,56,16.90
2015,05,28,08,57,16.90
2015,05,28,08,58,16.90
2015,05,28,08,59,16.90
2015,05,28,09,00,17.00
2015,05,28,09,01,17.10
2015,05,28,09,02,17.10
2015,05,28,09,03,17.20
2015,05,28,09,04,17.20
2015,05,28,09,05,17.20
2015,05,28,09,06,17.30
2015,05,28,09,07,17.30
2015,05,28,09,08,17.30
2015,05,28,09,09,17.30
2015,05,28,09,10,17.30
2015,05,28,09,11,17.30
2015,05,28,09,14,17.30
2015,05,28,09,15,17.30
2015,05,28,09,17,17.40
2015,05,28,09,18,17.40
2015,05,28,09,19,17.50
2015,05,28,09,20,17.50
2015,05,28,09,21,17.50
2015,05,28,09,22,17.50
2015,05,28,09,23,17.50
2015,05,28,09,24,17.60
2015,05,28,09,25,17.60
2015,05,28,09,27,17.60
2015,05,28,09,28,17.60
2015,05,28,09,29,17.70
2015,05,28,09,32,17.80
2015,05,28,09,33,17.80
2015,05,28,09,34,17.80
2015,05,28,09,35,17.90
2015,05,28,09,36,17.90
2015,05,28,09,37,18.10
2015,05,28,09,38,18.10
2015,05,28,09,39,18.20
2015,05,28,09,40,18.30
2015,05,28,09,41,18.40
2015,05,28,09,42,18.60
2015,05,28,09,43,18.60
2015,05,28,09,45,18.70
2015,05,28,09,46,18.80
2015,05,28,09,47,18.80
2015,05,28,09,48,18.80
2015,05,28,09,49,18.90
2015,05,28,09,50,18.90
2015,05,28,09,51,19.00
2015,05,28,09,52,19.10
2015,05,28,09,53,19.10
2015,05,28,09,54,19.10
2015,05,28,09,55,19.20
2015,05,28,09,56,19.20
2015,05,28,09,57,19.30
2015,05,28,09,58,19.30
2015,05,28,09,59,19.30
2015,05,28,10,00,19.30
2015,05,28,10,01,19.40
2015,05,28,10,02,19.40
2015,05,28,10,03,19.40
2015,05,28,10,04,19.50
2015,05,28,10,05,19.60
2015,05,28,10,06,19.60
2015,05,28,10,07,19.60
2015,05,28,10,08,19.60
2015,05,28,10,09,19.60
2015,05,28,10,12,19.80
2015,05,28,10,13,19.80
2015,05,28,10,14,19.90
2015,05,28,10,15,20.00
2015,05,28,10,16,20.10
2015,05,28,10,17,20.20
2015,05,28,10,18,20.30
2015,05,28,10,19,20.40
2015,05,28,10,20,20.60
2015,05,28,10,21,20.70
2015,05,28,10,22,20.80
2015,05,28,10,23,20.90
2015,05,28,10,24,21.00
2015,05,28,10,27,21.10
2015,05,28,10,28,21.20
2015,05,28,10,29,21.20
2015,05,28,10,30,21.20
2015,05,28,10,31,21.20
2015,05,28,10,32,21.20
2015,05,28,10,33,21.20
2015,05,28,10,34,21.30
2015,05,28,10,35,21.30
2015,05,28,10,36,21.40
2015,05,28,10,37,21.40
2015,05,28,10,39,21.70
2015,05,28,10,40,21.80
2015,05,28,10,41,21.80
2015,05,28,10,44,21.90
2015,05,28,10,45,22.10
2015,05,28,10,48,22.20
2015,05,28,10,49,22.20
2015,05,28,10,50,22.10
2015,05,28,10,51,21.90
2015,05,28,10,52,21.90
2015,05,28,10,53,21.80
2015,05,28,10,54,21.80
2015,05,28,10,56,21.70
2015,05,28,10,57,21.70
2015,05,28,10,58,21.70
2015,05,28,10,59,21.70
2015,05,28,11,00,21.80
2015,05,28,11,01,21.90
2015,05,28,11,02,21.90
2015,05,28,11,04,21.90
2015,05,28,11,05,21.90
2015,05,28,11,06,21.90
2015,05,28,11,07,21.90
2015,05,28,11,08,21.90
2015,05,28,11,09,21.90
2015,05,28,11,10,21.90
2015,05,28,11,11,21.90
2015,05,28,11,12,22.00
2015,05,28,11,13,21.90
2015,05,28,11,14,21.90
2015,05,28,11,15,21.80
2015,05,28,11,16,21.70
2015,05,28,11,17,21.70
2015,05,28,11,18,21.70
2015,05,28,11,19,21.70
2015,05,28,11,20,21.80
2015,05,28,11,21,21.80
2015,05,28,11,22,21.90
2015,05,28,11,23,22.00
2015,05,28,11,24,22.10
2015,05,28,11,25,22.20
2015,05,28,11,26,22.30
2015,05,28,11,27,22.40
2015,05,28,11,28,22.60
2015,05,28,11,31,23.00
2015,05,28,11,32,23.10
2015,05,28,11,33,23.30
2015,05,28,11,34,23.40
2015,05,28,11,37,23.70
2015,05,28,11,38,23.80
2015,05,28,11,39,23.80
2015,05,28,11,40,23.90
2015,05,28,11,41,23.90
2015,05,28,11,42,23.90
2015,05,28,11,43,23.90
2015,05,28,11,44,23.90
2015,05,28,11,45,23.90
2015,05,28,11,46,23.90
2015,05,28,11,47,23.90
2015,05,28,11,48,23.90
2015,05,28,11,49,23.80
2015,05,28,11,50,23.80
2015,05,28,11,51,23.80
2015,05,28,11,52,23.80
2015,05,28,11,53,23.80
2015,05,28,11,54,23.80
2015,05,28,11,55,23.90
2015,05,28,11,56,23.90
2015,05,28,11,57,24.00
2015,05,28,11,58,24.00
2015,05,28,11,59,24.10
2015,05,28,12,00,24.10
2015,05,28,12,01,24.20
2015,05,28,12,02,24.30
2015,05,28,12,03,24.40
2015,05,28,12,04,24.40
2015,05,28,12,05,24.50
2015,05,28,12,06,24.60
2015,05,28,12,07,24.60
2015,05,28,12,08,24.70
2015,05,28,12,09,24.80
2015,05,28,12,10,24.80
2015,05,28,12,11,24.90
2015,05,28,12,13,25.00
2015,05,28,12,14,25.00
2015,05,28,12,15,25.00
2015,05,28,12,16,25.00
2015,05,28,12,17,25.00
2015,05,28,12,18,24.90
2015,05,28,12,19,25.00
2015,05,28,12,20,25.00
2015,05,28,12,21,25.10
2015,05,28,12,22,25.20
2015,05,28,12,23,25.30
2015,05,28,12,24,25.50
2015,05,28,12,25,25.60
2015,05,28,12,27,25.80
2015,05,28,12,28,25.80
2015,05,28,12,29,25.80
2015,05,28,12,30,25.70
2015,05,28,12,31,25.60
2015,05,28,12,32,25.50
2015,05,28,12,33,25.40
2015,05,28,12,35,25.30
2015,05,28,12,36,25.40
2015,05,28,12,37,25.40
2015,05,28,12,38,25.50
2015,05,28,12,39,25.60
2015,05,28,12,40,25.70
2015,05,28,12,41,25.80
2015,05,28,12,42,25.80
2015,05,28,12,45,25.90
2015,05,28,12,46,25.90
2015,05,28,12,47,25.90
2015,05,28,12,48,25.90
2015,05,28,12,49,25.90
2015,05,28,12,50,25.90
2015,05,28,12,51,25.90
2015,05,28,12,52,26.00
2015,05,28,12,53,26.10
2015,05,28,12,54,26.10
2015,05,28,12,55,26.20
2015,05,28,12,57,26.40
2015,05,28,12,58,26.50
2015,05,28,12,59,26.60
2015,05,28,13,00,26.70
2015,05,28,13,01,26.80
2015,05,28,13,02,26.80
2015,05,28,13,03,26.90
2015,05,28,13,30,26.60
2015,05,28,13,33,26.60
2015,05,28,13,34,26.60
2015,05,28,13,35,26.70
2015,05,28,13,38,26.70
2015,05,28,13,39,26.80
2015,05,28,13,40,26.80
2015,05,28,13,41,26.80
2015,05,28,13,42,26.90
2015,05,28,13,45,26.90
2015,05,28,13,46,26.90
2015,05,28,13,47,26.90
2015,05,28,13,48,27.00
2015,05,28,13,49,27.00
2015,05,28,13,50,27.10
2015,05,28,13,51,27.10
2015,05,28,13,52,27.10
2015,05,28,13,54,27.20
2015,05,28,13,55,27.10
2015,05,28,13,56,27.10
2015,05,28,13,57,27.10
2015,05,28,13,58,27.10
2015,05,28,13,59,27.10
2015,05,28,14,01,27.20
2015,05,28,14,02,27.20
2015,05,28,14,03,27.20
2015,05,28,14,04,27.30
2015,05,28,14,05,27.30
2015,05,28,14,06,27.30
2015,05,28,14,07,27.30
2015,05,28,14,09,27.30
2015,05,28,14,10,27.40
2015,05,28,14,11,27.40
2015,05,28,14,12,27.50
2015,05,28,14,13,27.60
2015,05,28,14,14,27.60
2015,05,28,14,15,27.70
2015,05,28,14,16,27.70
2015,05,28,14,17,27.70
2015,05,28,14,18,27.70
2015,05,28,14,19,27.70
2015,05,28,14,20,27.70
2015,05,28,14,21,27.70
2015,05,28,14,22,27.60
2015,05,28,14,23,27.60
2015,05,28,14,24,27.70
2015,05,28,14,26,27.70
2015,05,28,14,27,27.70
2015,05,28,14,28,27.70
2015,05,28,14,29,27.70
2015,05,28,14,30,27.70
2015,05,28,14,31,27.80
2015,05,28,14,32,27.70
2015,05,28,14,33,27.80
2015,05,28,14,34,27.80
2015,05,28,14,35,27.80
2015,05,28,14,36,27.80
2015,05,28,14,37,27.80
2015,05,28,14,38,27.80
2015,05,28,14,39,27.80
2015,05,28,14,40,27.80
2015,05,28,14,41,27.80
2015,05,28,14,44,28.10
2015,05,28,14,45,28.10
2015,05,28,14,46,28.10
2015,05,28,14,47,28.10
2015,05,28,14,48,28.10
2015,05,28,14,49,28.10
2015,05,28,14,50,28.10
2015,05,28,14,51,28.10
2015,05,28,14,52,28.10
2015,05,28,14,53,28.20
2015,05,28,14,55,28.20
2015,05,28,14,56,28.20
2015,05,28,14,57,28.20
2015,05,28,14,58,28.20
2015,05,28,14,59,28.20
2015,05,28,15,00,28.20
2015,05,28,15,01,28.20
2015,05,28,15,03,28.30
2015,05,28,15,04,28.30
2015,05,28,15,05,28.30
2015,05,28,15,06,28.30
2015,05,28,15,07,28.30
2015,05,28,15,08,28.30
2015,05,28,15,09,28.40
2015,05,28,15,10,28.40
2015,05,28,15,11,28.40
2015,05,28,15,12,28.40
2015,05,28,15,13,28.50
2015,05,28,15,14,28.50
2015,05,28,15,15,28.60
2015,05,28,15,16,28.60
2015,05,28,15,17,28.60
2015,05,28,15,18,28.70
2015,05,28,15,19,28.70
2015,05,28,15,20,28.80
2015,05,28,15,21,28.80
2015,05,28,15,22,28.80
2015,05,28,15,23,28.90
2015,05,28,15,24,28.90
2015,05,28,15,25,28.90
2015,05,28,15,26,28.90
2015,05,28,15,27,28.80
2015,05,28,15,29,28.70
2015,05,28,15,30,28.70
2015,05,28,15,31,28.60
2015,05,28,15,32,28.60
2015,05,28,15,33,28.60
2015,05,28,15,34,28.60
2015,05,28,15,35,28.60
2015,05,28,15,36,28.60
2015,05,28,15,38,28.60
2015,05,28,15,39,28.60
2015,05,28,15,40,28.60
2015,05,28,15,41,28.60
2015,05,28,15,42,28.60
2015,05,28,15,45,28.70
2015,05,28,15,46,28.70
2015,05,28,15,47,28.70
2015,05,28,15,48,28.70
2015,05,28,15,49,28.70
2015,05,28,15,51,28.70
2015,05,28,15,52,28.70
2015,05,28,15,53,28.70
2015,05,28,15,54,28.60
2015,05,28,15,55,28.60
2015,05,28,15,56,28.60
2015,05,28,15,57,28.50
2015,05,28,15,58,28.40
2015,05,28,15,59,28.30
2015,05,28,16,00,28.30
2015,05,28,16,01,28.20
2015,05,28,16,03,28.20
2015,05,28,16,04,28.20
2015,05,28,16,05,28.20
2015,05,28,16,06,28.10
2015,05,28,16,07,28.00
2015,05,28,16,08,27.90
2015,05,28,16,09,27.90
2015,05,28,16,11,27.80
2015,05,28,16,12,27.70
2015,05,28,16,13,27.70
2015,05,28,16,14,27.60
2015,05,28,16,15,27.70
2015,05,28,16,16,27.70
2015,05,28,16,17,27.70
2015,05,28,16,18,27.80
2015,05,28,16,19,27.80
2015,05,28,16,20,27.70
2015,05,28,16,21,27.70
2015,05,28,16,22,27.60
2015,05,28,16,23,27.60
2015,05,28,16,25,27.50
2015,05,28,16,26,27.40
2015,05,28,16,27,27.40
2015,05,28,16,28,27.40
2015,05,28,16,29,27.30
2015,05,28,16,30,27.30
2015,05,28,16,32,27.20
2015,05,28,16,33,27.10
2015,05,28,16,34,27.10
2015,05,28,16,35,27.00
2015,05,28,16,36,26.90
2015,05,28,16,37,26.90
2015,05,28,16,38,26.90
2015,05,28,16,39,26.90
2015,05,28,16,40,26.80
2015,05,28,16,41,26.80
2015,05,28,16,42,26.80
2015,05,28,16,43,26.80
2015,05,28,16,44,26.80
2015,05,28,16,46,26.70
2015,05,28,16,48,26.60
2015,05,28,16,49,26.50
2015,05,28,16,50,26.40
2015,05,28,16,51,26.40
2015,05,28,16,54,26.40
2015,05,28,16,55,26.40
2015,05,28,16,56,26.40
2015,05,28,16,57,26.40
2015,05,28,16,58,26.40
2015,05,28,16,59,26.30
2015,05,28,17,02,26.20
2015,05,28,17,04,26.20
2015,05,28,17,05,26.20
2015,05,28,17,06,26.10
2015,05,28,17,08,26.10
2015,05,28,17,10,26.10
2015,05,28,17,12,25.90
2015,05,28,17,13,25.80
2015,05,28,17,14,25.80
2015,05,28,17,15,25.70
2015,05,28,17,16,25.60
2015,05,28,17,18,25.40
2015,05,28,17,19,25.40
2015,05,28,17,20,25.30
2015,05,28,17,21,25.30
2015,05,28,17,22,25.20
2015,05,28,17,23,25.10
2015,05,28,17,24,25.00
2015,05,28,17,25,24.90
2015,05,28,17,26,24.90
2015,05,28,17,27,24.80
2015,05,28,17,28,24.80
2015,05,28,17,29,24.80
2015,05,28,17,30,24.70
2015,05,28,17,31,24.70
2015,05,28,17,32,24.70
2015,05,28,17,33,24.70
2015,05,28,17,34,24.70
2015,05,28,17,35,24.60
2015,05,28,17,36,24.60
2015,05,28,17,37,24.60
2015,05,28,17,38,24.60
2015,05,28,17,39,24.60
2015,05,28,17,40,24.50
2015,05,28,17,41,24.50
2015,05,28,17,42,24.40
2015,05,28,17,43,24.40
2015,05,28,17,44,24.40
2015,05,28,17,45,24.40
2015,05,28,17,46,24.40
2015,05,28,17,47,24.40
2015,05,28,17,48,24.40
2015,05,28,17,49,24.40
2015,05,28,17,50,24.40
2015,05,28,17,51,24.40
2015,05,28,17,52,24.30
2015,05,28,17,53,24.30
2015,05,28,17,56,24.20
2015,05,28,17,57,24.20
2015,05,28,17,59,24.20
2015,05,28,18,00,24.20
2015,05,28,18,01,24.20
2015,05,28,18,02,24.30
2015,05,28,18,03,24.30
2015,05,28,18,04,24.30
2015,05,28,18,05,24.30
2015,05,28,18,06,24.30
2015,05,28,18,07,24.30
2015,05,28,18,08,24.40
2015,05,28,18,09,24.40
2015,05,28,18,10,24.40
2015,05,28,18,12,24.30
2015,05,28,18,13,24.30
2015,05,28,18,14,24.30
2015,05,28,18,15,24.20
2015,05,28,18,17,24.20
2015,05,28,18,18,24.20
2015,05,28,18,19,24.20
2015,05,28,18,20,24.20
2015,05,28,18,21,24.20
2015,05,28,18,22,24.10
2015,05,28,18,23,24.10
2015,05,28,18,24,24.10
2015,05,28,18,25,24.10
2015,05,28,18,26,24.10
2015,05,28,18,27,24.10
2015,05,28,18,28,24.00
2015,05,28,18,29,23.90
2015,05,28,18,30,23.90
2015,05,28,18,31,23.90
2015,05,28,18,32,23.80
2015,05,28,18,33,23.80
2015,05,28,18,34,23.80
2015,05,28,18,35,23.80
2015,05,28,18,36,23.80
2015,05,28,18,37,23.80
2015,05,28,18,38,23.80
2015,05,28,18,39,23.80
2015,05,28,18,40,23.70
2015,05,28,18,41,23.70
2015,05,28,18,42,23.70
2015,05,28,18,43,23.70
2015,05,28,18,44,23.70
2015,05,28,18,45,23.70
2015,05,28,18,46,23.70
2015,05,28,18,49,23.60
2015,05,28,18,50,23.60
2015,05,28,18,51,23.60
2015,05,28,18,52,23.60
2015,05,28,18,53,23.60
2015,05,28,18,54,23.60
2015,05,28,18,55,23.60
2015,05,28,18,56,23.60
2015,05,28,18,57,23.60
2015,05,28,18,58,23.50
2015,05,28,18,59,23.50
2015,05,28,19,00,23.40
2015,05,28,19,01,23.40
2015,05,28,19,02,23.40
2015,05,28,19,03,23.40
2015,05,28,19,04,23.40
2015,05,28,19,06,23.40
2015,05,28,19,07,23.30
2015,05,28,19,08,23.30
2015,05,28,19,09,23.20
2015,05,28,19,10,23.20
2015,05,28,19,11,23.10
2015,05,28,19,12,23.10
2015,05,28,19,14,22.90
2015,05,28,19,15,22.90
2015,05,28,19,16,22.90
2015,05,28,19,17,22.80
2015,05,28,19,18,22.80
2015,05,28,19,19,22.70
2015,05,28,19,22,22.60
2015,05,28,19,23,22.60
2015,05,28,19,24,22.60
2015,05,28,19,25,22.60
2015,05,28,19,26,22.60
2015,05,28,19,29,22.60
2015,05,28,19,30,22.60
2015,05,28,19,31,22.60
2015,05,28,19,32,22.60
2015,05,28,19,33,22.60
2015,05,28,19,34,22.60
2015,05,28,19,35,22.70
2015,05,28,19,36,22.60
2015,05,28,19,37,22.60
2015,05,28,19,38,22.60
2015,05,28,19,39,22.60
2015,05,28,19,40,22.60
2015,05,28,19,41,22.60
2015,05,28,19,42,22.60
2015,05,28,19,43,22.60
2015,05,28,19,44,22.60
2015,05,28,19,45,22.60
2015,05,28,19,46,22.50
2015,05,28,19,47,22.60
2015,05,28,19,48,22.60
2015,05,28,19,49,22.60
2015,05,28,19,50,22.50
2015,05,28,19,51,22.50
2015,05,28,19,52,22.50
2015,05,28,19,53,22.50
2015,05,28,19,54,22.50
2015,05,28,19,55,22.50
2015,05,28,19,56,22.40
2015,05,28,19,57,22.40
2015,05,28,19,58,22.40
2015,05,28,19,59,22.40
2015,05,28,20,00,22.40
2015,05,28,20,01,22.30
2015,05,28,20,02,22.30